Simultaneous Nadir Overpasses (SNOs) Predictions

Prediction of SNOs between METOP-B and NOAA-19 Satellite Orbit:

Table of predicted SNOs for the next 14.0 days since TLE Epoch: 3/11/2023
Index Date (METOP-B) Time (METOP-B) Lat,Lon (METOP-B) SZA (METOP-B ) Date (NOAA-19) Time (NOAA-19) Lat,Lon (NOAA-19) SZA (NOAA-19 ) Distance(km) Time Diff (sec)
1 03/13/2023 08:10:09 -80.93, -87.75 94.73 03/13/2023 08:09:02 -80.93, -87.56 94.73 3.27 67
2 03/13/2023 09:00:49 80.94, 79.74 85.28 03/13/2023 09:00:06 80.93, 79.85 85.27 1.90 43
3 03/13/2023 09:51:30 -80.94,-112.89 94.73 03/13/2023 09:51:01 -80.93,-112.93 94.75 0.95 29
4 03/13/2023 10:42:11 80.93, 54.24 85.23 03/13/2023 10:42:06 80.93, 54.10 85.22 2.43 5
5 03/13/2023 11:32:52 -80.93,-138.40 94.78 03/13/2023 11:33:00 -80.93,-138.30 94.77 1.74 8
6 03/13/2023 12:23:32 80.94, 29.09 85.23 03/13/2023 12:24:04 80.93, 29.10 85.24 0.58 32
7 03/13/2023 13:14:13 -80.94,-163.55 94.78 03/13/2023 13:14:59 -80.93,-163.67 94.78 2.32 46
8 03/13/2023 14:04:54 80.93, 3.58 85.18 03/13/2023 14:06:03 80.93, 3.73 85.22 2.60 69
9 03/24/2023 17:50:10 -80.92, 127.09 99.17 03/24/2023 17:49:08 -80.93, 127.20 99.17 2.19 62
10 03/24/2023 18:40:50 80.93, -65.48 80.84 03/24/2023 18:40:10 80.93, -65.49 80.83 0.44 40
11 03/24/2023 19:31:31 -80.93, 101.93 99.17 03/24/2023 19:31:07 -80.93, 101.82 99.19 1.92 24
12 03/24/2023 20:22:11 80.93, -90.64 80.84 03/24/2023 20:22:08 80.93, -90.51 80.84 2.42 3
13 03/24/2023 21:12:52 -80.94, 76.76 99.17 03/24/2023 21:13:05 -80.93, 76.80 99.17 1.05 13
14 03/24/2023 22:03:33 80.93,-116.16 80.78 03/24/2023 22:04:08 80.93,-116.27 80.79 1.99 35
15 03/24/2023 22:54:14 -80.93, 51.24 99.22 03/24/2023 22:55:04 -80.93, 51.42 99.19 3.09 50



Historial Predications of SNOs between METOP-B and NOAA-19
